TimeAKST,TemperatureF,Dew PointF,Humidity,Sea Level PressureIn,VisibilityMPH,Wind Direction,Wind SpeedMPH,Gust SpeedMPH,PrecipitationIn,Events,Conditions,WindDirDegrees,DateUTC
12:04 AM,33.8,33.8,100,29.42,3.0,South,3.5,-,0.01,Snow,Light Snow,190,2014-02-18 09:04:00
12:16 AM,33.8,32.0,93,29.42,2.5,South,3.5,-,0.01,Snow,Light Snow,170,2014-02-18 09:16:00
12:20 AM,33.8,32.0,93,29.42,1.2,SSE,3.5,-,0.02,Snow,Light Snow,160,2014-02-18 09:20:00
12:29 AM,33.8,33.8,100,29.42,0.8,South,3.5,-,0.05,Snow,Light Snow,170,2014-02-18 09:29:00
12:39 AM,33.8,33.8,100,29.42,1.2,SSE,4.6,-,0.06,Snow,Light Snow,160,2014-02-18 09:39:00
12:53 AM,33.1,32.0,96,29.42,1.0,SE,3.5,-,0.09,Snow,Light Snow,140,2014-02-18 09:53:00
1:04 AM,33.8,32.0,93,29.41,1.2,SE,3.5,-,0.01,Snow,Light Snow,140,2014-02-18 10:04:00
1:11 AM,33.8,33.8,100,29.41,1.5,South,3.5,-,0.01,Snow,Light Snow,170,2014-02-18 10:11:00
1:17 AM,33.8,33.8,100,29.41,3.0,SSE,4.6,-,0.02,Snow,Light Snow,150,2014-02-18 10:17:00
1:33 AM,33.8,33.8,100,29.41,10.0,South,3.5,-,0.02,,Overcast,170,2014-02-18 10:33:00
1:53 AM,34.0,33.1,96,29.41,10.0,South,6.9,-,0.02,,Overcast,170,2014-02-18 10:53:00
2:24 AM,33.8,32.0,93,29.40,10.0,SSE,9.2,-,N/A,,Overcast,160,2014-02-18 11:24:00
3:14 AM,33.8,33.8,100,29.37,10.0,South,8.1,-,N/A,,Overcast,170,2014-02-18 12:14:00
3:32 AM,35.6,33.8,93,29.36,10.0,SSE,9.2,-,N/A,,Overcast,150,2014-02-18 12:32:00
3:53 AM,34.0,33.1,96,29.35,10.0,SSE,9.2,-,0.00,Rain,Light Rain,160,2014-02-18 12:53:00
4:53 AM,35.1,33.1,92,29.31,10.0,SSE,6.9,-,0.00,,Overcast,160,2014-02-18 13:53:00
5:13 AM,35.6,32.0,87,29.29,10.0,SSE,9.2,-,N/A,,Mostly Cloudy,150,2014-02-18 14:13:00
5:53 AM,35.1,32.0,89,29.26,10.0,South,4.6,-,N/A,,Overcast,180,2014-02-18 14:53:00
6:00 AM,35.6,32.0,87,29.25,10.0,SSW,3.5,-,N/A,,Overcast,200,2014-02-18 15:00:00
6:53 AM,35.1,30.9,85,29.22,10.0,WNW,3.5,-,0.00,,Overcast,300,2014-02-18 15:53:00
7:53 AM,35.1,30.9,85,29.19,10.0,South,8.1,-,0.01,Snow,Light Snow,180,2014-02-18 16:53:00
8:53 AM,35.1,32.0,89,29.15,10.0,Variable,3.5,-,0.00,,Overcast,0,2014-02-18 17:53:00
9:53 AM,36.0,30.9,82,29.13,5.0,SSE,9.2,16.1,0.00,Snow,Light Snow,150,2014-02-18 18:53:00
10:53 AM,35.1,32.0,89,29.12,10.0,South,9.2,-,0.01,,Light Drizzle,170,2014-02-18 19:53:00
11:53 AM,34.0,33.1,96,29.13,3.0,SE,19.6,25.3,0.02,Snow,Light Snow,130,2014-02-18 20:53:00
12:21 PM,35.6,32.0,87,29.16,10.0,SE,11.5,-,0.00,,Overcast,140,2014-02-18 21:21:00
12:53 PM,35.1,33.1,92,29.19,10.0,SE,15.0,-,0.00,Rain,Light Rain,130,2014-02-18 21:53:00
1:53 PM,35.1,33.1,92,29.20,7.0,SE,8.1,-,0.04,Rain,Rain,130,2014-02-18 22:53:00
2:53 PM,37.9,32.0,79,29.22,10.0,SE,15.0,23.0,0.00,,Overcast,140,2014-02-18 23:53:00
3:53 PM,37.0,34.0,89,29.24,10.0,SE,17.3,23.0,0.00,,Mostly Cloudy,140,2014-02-19 00:53:00
4:53 PM,36.0,30.9,82,29.25,10.0,SE,16.1,-,N/A,,Overcast,130,2014-02-19 01:53:00
5:53 PM,35.1,32.0,89,29.27,10.0,SE,15.0,-,0.01,,Overcast,140,2014-02-19 02:53:00
6:53 PM,35.1,32.0,89,29.28,8.0,SSE,15.0,21.9,0.00,Snow,Light Snow,150,2014-02-19 03:53:00
7:53 PM,35.1,32.0,89,29.30,10.0,Variable,4.6,-,0.00,,Overcast,0,2014-02-19 04:53:00
8:53 PM,35.1,32.0,89,29.33,9.0,SE,13.8,-,0.00,Rain,Light Rain,130,2014-02-19 05:53:00
9:53 PM,35.1,32.0,89,29.35,5.0,SE,10.4,21.9,0.01,Snow,Light Snow,140,2014-02-19 06:53:00
10:00 PM,33.8,32.0,93,29.34,3.0,SE,12.7,-,0.00,Snow,Light Snow,130,2014-02-19 07:00:00
10:09 PM,35.6,32.0,87,29.35,3.0,SE,10.4,-,0.01,Snow,Light Snow,130,2014-02-19 07:09:00
10:27 PM,35.6,33.8,93,29.36,9.0,South,5.8,-,0.01,Snow,Light Snow,170,2014-02-19 07:27:00
10:53 PM,35.1,32.0,89,29.37,9.0,SSE,9.2,-,0.01,Snow,Light Snow,150,2014-02-19 07:53:00
11:36 PM,33.8,32.0,93,29.39,10.0,SE,13.8,-,0.00,,Overcast,140,2014-02-19 08:36:00
11:53 PM,34.0,32.0,92,29.41,7.0,SSE,9.2,-,0.00,Snow,Light Snow,160,2014-02-19 08:53:00